StationID,Date,MaxTemp,MinTemp,Precipitation,Snowfall,SnowDepth
"USR0000CSRS","1991-03-06",53.06,44.06,,,
"USR0000CSRS","1991-03-07",60.08,42.98,,,
"USR0000CSRS","1991-03-08",62.96,42.08,,,
"USR0000CSRS","1991-03-09",51.98,42.98,,,
"USR0000CSRS","1991-03-10",46.04,39.02,,,
"USR0000CSRS","1991-03-11",55.04,35.96,,,
"USR0000CSRS","1991-03-12",51.98,44.96,,,
"USR0000CSRS","1991-03-13",53.06,41.00,,,
"USR0000CSRS","1991-03-14",53.06,37.94,,,
"USR0000CSRS","1991-03-15",60.08,39.02,,,
"USR0000CSRS","1991-03-16",50.00,37.94,,,
"USR0000CSRS","1991-03-17",51.98,42.98,,,
"USR0000CSRS","1991-03-18",55.04,41.00,,,
"USR0000CSRS","1991-03-19",51.98,37.94,,,
"USR0000CSRS","1991-03-20",48.02,42.08,,,
"USR0000CSRS","1991-03-21",53.96,41.00,,,
"USR0000CSRS","1991-03-22",53.96,37.94,,,
"USR0000CSRS","1991-03-23",46.94,41.00,,,
"USR0000CSRS","1991-03-24",50.00,39.92,,,
"USR0000CSRS","1991-03-25",48.92,39.92,,,
"USR0000CSRS","1991-03-26",46.94,37.94,,,
"USR0000CSRS","1991-03-27",62.06,37.04,,,
"USR0000CSRS","1991-03-28",60.08,42.08,,,
"USR0000CSRS","1991-03-29",66.92,41.00,,,
"USR0000CSRS","1991-03-30",69.98,46.94,,,
"USR0000CSRS","1991-03-31",57.92,48.92,,,
"USR0000CSRS","1991-04-01",55.94,46.04,,,
"USR0000CSRS","1991-04-02",62.96,44.06,,,
"USR0000CSRS","1991-04-03",69.08,46.04,,,
"USR0000CSRS","1991-04-04",68.00,48.92,,,
"USR0000CSRS","1991-04-05",66.02,46.04,,,
"USR0000CSRS","1991-04-06",60.08,44.96,,,
"USR0000CSRS","1991-04-07",62.06,39.92,,,
"USR0000CSRS","1991-04-08",69.98,42.08,,,
"USR0000CSRS","1991-04-09",68.00,46.04,,,
"USR0000CSRS","1991-04-10",59.00,39.92,,,
"USR0000CSRS","1991-04-11",64.04,42.08,,,
"USR0000CSRS","1991-04-12",71.06,46.04,,,
"USR0000CSRS","1991-04-13",64.04,44.06,,,
"USR0000CSRS","1991-04-14",64.94,42.98,,,
"USR0000CSRS","1991-04-15",60.98,41.00,,,
"USR0000CSRS","1991-04-16",57.92,39.92,,,
"USR0000CSRS","1991-04-17",60.98,39.92,,,
"USR0000CSRS","1991-04-18",53.96,39.92,,,
"USR0000CSRS","1991-04-19",57.02,48.92,,,
"USR0000CSRS","1991-04-20",57.92,48.02,,,
"USR0000CSRS","1991-04-21",66.02,48.92,,,
"USR0000CSRS","1991-04-22",60.98,44.96,,,
"USR0000CSRS","1991-04-23",53.06,46.94,,,
"USR0000CSRS","1991-04-24",53.96,44.96,,,
"USR0000CSRS","1991-04-25",53.96,42.98,,,
"USR0000CSRS","1991-04-26",66.92,44.06,,,
"USR0000CSRS","1991-04-27",68.00,44.96,,,
"USR0000CSRS","1991-04-28",73.94,53.06,,,
"USR0000CSRS","1991-04-29",82.04,53.96,,,
"USR0000CSRS","1991-04-30",66.02,44.96,,,
"USR0000CSRS","1991-05-01",55.04,42.98,,,
"USR0000CSRS","1991-05-02",55.94,42.08,,,
"USR0000CSRS","1991-05-03",59.00,42.98,,,
"USR0000CSRS","1991-05-04",64.94,44.06,,,
"USR0000CSRS","1991-05-05",71.06,44.06,,,
"USR0000CSRS","1991-05-06",75.92,53.96,,,
"USR0000CSRS","1991-05-07",73.94,51.98,,,
"USR0000CSRS","1991-05-08",62.96,46.04,,,
"USR0000CSRS","1991-05-09",66.02,42.08,,,
"USR0000CSRS","1991-05-10",69.98,46.04,,,
"USR0000CSRS","1991-05-11",55.94,44.96,,,
"USR0000CSRS","1991-05-12",60.98,46.94,,,
"USR0000CSRS","1991-05-13",60.08,46.04,,,
"USR0000CSRS","1991-05-14",71.06,44.96,,,
"USR0000CSRS","1991-05-15",71.06,48.02,,,
"USR0000CSRS","1991-05-16",66.02,44.96,,,
"USR0000CSRS","1991-05-17",60.98,46.94,,,
"USR0000CSRS","1991-05-18",60.08,44.96,,,
"USR0000CSRS","1991-05-19",66.02,42.98,,,
"USR0000CSRS","1991-05-20",60.08,42.98,,,
"USR0000CSRS","1991-05-21",73.94,46.04,,,
"USR0000CSRS","1991-05-22",64.94,44.96,,,
"USR0000CSRS","1991-05-23",77.00,44.06,,,
"USR0000CSRS","1991-05-24",84.92,55.04,,,
"USR0000CSRS","1991-05-25",73.04,53.06,,,
"USR0000CSRS","1991-05-26",73.94,51.08,,,
"USR0000CSRS","1991-05-27",71.96,46.04,,,
"USR0000CSRS","1991-05-28",69.08,42.98,,,
"USR0000CSRS","1991-05-29",66.92,46.04,,,
"USR0000CSRS","1991-05-30",69.98,46.94,,,
"USR0000CSRS","1991-05-31",86.00,51.98,,,
"USR0000CSRS","1991-06-01",93.02,50.00,,,
"USR0000CSRS","1991-06-02",59.00,48.02,,,
"USR0000CSRS","1991-06-03",68.00,44.96,,,
"USR0000CSRS","1991-06-04",73.04,44.06,,,
"USR0000CSRS","1991-06-05",80.96,48.02,,,
"USR0000CSRS","1991-06-06",62.96,46.04,,,
"USR0000CSRS","1991-06-07",78.98,46.04,,,
"USR0000CSRS","1991-06-08",82.94,50.00,,,
"USR0000CSRS","1991-06-09",78.98,48.92,,,
"USR0000CSRS","1991-06-10",80.06,48.92,,,
"USR0000CSRS","1991-06-11",82.94,51.98,,,
"USR0000CSRS","1991-06-12",78.98,46.94,,,
"USR0000CSRS","1991-06-13",78.08,51.98,,,
"USR0000CSRS","1991-06-14",78.98,53.06,,,
"USR0000CSRS","1991-06-15",80.06,48.02,,,
"USR0000CSRS","1991-06-16",77.00,46.04,,,
"USR0000CSRS","1991-06-17",77.00,46.04,,,
"USR0000CSRS","1991-06-18",68.00,44.06,,,
"USR0000CSRS","1991-06-19",71.96,44.96,,,
"USR0000CSRS","1991-06-20",73.94,44.96,,,
"USR0000CSRS","1991-06-21",73.04,44.96,,,
"USR0000CSRS","1991-06-22",68.00,44.96,,,
"USR0000CSRS","1991-06-23",64.94,44.96,,,
"USR0000CSRS","1991-06-24",68.00,46.94,,,
"USR0000CSRS","1991-06-25",69.98,46.94,,,
"USR0000CSRS","1991-06-26",66.02,46.04,,,
"USR0000CSRS","1991-06-27",66.92,48.92,,,
"USR0000CSRS","1991-06-28",59.00,55.04,,,
"USR0000CSRS","1991-06-29",71.06,53.06,,,
"USR0000CSRS","1991-06-30",87.98,53.96,,,
"USR0000CSRS","1991-07-01",95.00,68.00,,,
"USR0000CSRS","1991-07-02",98.96,59.00,,,
"USR0000CSRS","1991-07-03",84.92,51.98,,,
"USR0000CSRS","1991-07-04",84.92,51.08,,,
"USR0000CSRS","1991-07-05",75.92,51.98,,,
"USR0000CSRS","1991-07-06",71.96,51.98,,,
"USR0000CSRS","1991-07-07",71.06,51.08,,,
"USR0000CSRS","1991-07-08",66.92,50.00,,,
"USR0000CSRS","1991-07-09",71.06,48.92,,,
"USR0000CSRS","1991-07-10",77.00,50.00,,,
"USR0000CSRS","1991-07-11",80.06,48.02,,,
"USR0000CSRS","1991-07-12",75.02,51.08,,,
"USR0000CSRS","1991-07-13",75.92,51.08,,,
"USR0000CSRS","1991-07-14",75.92,51.08,,,
"USR0000CSRS","1991-07-15",78.08,48.02,,,
"USR0000CSRS","1991-07-16",77.00,53.06,,,
"USR0000CSRS","1991-07-17",78.98,51.98,,,
"USR0000CSRS","1991-07-18",75.92,50.00,,,
"USR0000CSRS","1991-07-19",66.02,51.08,,,
"USR0000CSRS","1991-07-20",69.08,51.98,,,
"USR0000CSRS","1991-07-21",75.02,51.98,,,
"USR0000CSRS","1991-07-22",77.00,53.06,,,
"USR0000CSRS","1991-07-23",73.04,51.08,,,
"USR0000CSRS","1991-07-24",75.02,51.98,,,
"USR0000CSRS","1991-07-25",84.92,48.92,,,
"USR0000CSRS","1991-07-26",77.00,53.06,,,
"USR0000CSRS","1991-07-27",69.98,53.06,,,
"USR0000CSRS","1991-07-28",77.00,51.98,,,
"USR0000CSRS","1991-07-29",86.00,51.98,,,
"USR0000CSRS","1991-07-30",84.02,51.98,,,
"USR0000CSRS","1991-07-31",69.98,53.06,,,
"USR0000CSRS","1991-08-01",75.92,51.98,,,
"USR0000CSRS","1991-08-02",73.04,50.00,,,
"USR0000CSRS","1991-08-03",71.96,51.08,,,
"USR0000CSRS","1991-08-04",71.96,51.08,,,
"USR0000CSRS","1991-08-05",73.04,51.98,,,
"USR0000CSRS","1991-08-06",69.98,51.98,,,
"USR0000CSRS","1991-08-07",78.98,-0.04,,,
"USR0000CSRS","1991-08-08",86.00,55.04,,,
"USR0000CSRS","1991-08-09",87.08,55.94,,,
"USR0000CSRS","1991-08-10",87.98,51.98,,,
"USR0000CSRS","1991-08-11",77.00,51.08,,,
"USR0000CSRS","1991-08-12",77.00,50.00,,,
"USR0000CSRS","1991-08-13",89.96,-7.06,,,
"USR0000CSRS","1991-08-14",69.98,-9.04,,,
"USR0000CSRS","1991-08-15",71.06,6.08,,,
"USR0000CSRS","1991-08-16",75.02,53.06,,,
"USR0000CSRS","1991-08-17",69.08,53.06,,,
"USR0000CSRS","1991-08-18",73.04,53.06,,,
"USR0000CSRS","1991-08-19",73.04,53.06,,,
"USR0000CSRS","1991-08-20",73.94,53.96,,,
"USR0000CSRS","1991-08-21",78.08,51.08,,,
"USR0000CSRS","1991-08-22",75.02,51.98,,,
"USR0000CSRS","1991-08-23",84.92,51.98,,,
"USR0000CSRS","1991-08-24",80.96,51.98,,,
"USR0000CSRS","1991-08-25",69.98,50.00,,,
"USR0000CSRS","1991-08-26",64.04,48.02,,,
"USR0000CSRS","1991-08-27",69.98,51.98,,,
"USR0000CSRS","1991-08-28",78.08,53.96,,,
"USR0000CSRS","1991-08-29",80.96,55.94,,,
"USR0000CSRS","1991-08-30",73.94,55.04,,,
"USR0000CSRS","1991-08-31",82.94,53.96,,,
"USR0000CSRS","1991-09-01",86.00,59.00,,,
"USR0000CSRS","1991-09-02",96.98,57.92,,,
"USR0000CSRS","1991-09-03",82.04,53.96,,,
"USR0000CSRS","1991-09-04",84.02,51.98,,,
"USR0000CSRS","1991-09-05",75.92,51.98,,,
"USR0000CSRS","1991-09-06",68.00,55.04,,,
"USR0000CSRS","1991-09-07",71.96,53.96,,,
"USR0000CSRS","1991-09-08",78.08,48.92,,,
"USR0000CSRS","1991-09-09",71.06,48.02,,,
"USR0000CSRS","1991-09-10",73.94,50.00,,,
"USR0000CSRS","1991-09-11",75.02,50.00,,,
"USR0000CSRS","1991-09-12",73.94,50.00,,,
"USR0000CSRS","1991-09-13",71.06,50.00,,,
"USR0000CSRS","1991-09-14",75.02,48.92,,,
"USR0000CSRS","1991-09-15",71.96,48.92,,,
"USR0000CSRS","1991-09-16",84.92,51.08,,,
"USR0000CSRS","1991-09-17",86.00,50.00,,,
"USR0000CSRS","1991-09-18",80.96,50.00,,,
"USR0000CSRS","1991-09-19",69.08,53.06,,,
"USR0000CSRS","1991-09-20",69.98,51.98,,,
"USR0000CSRS","1991-09-23",86.00,57.02,,,
"USR0000CSRS","1991-09-24",80.96,57.02,,,
"USR0000CSRS","1991-09-25",78.08,51.98,,,
"USR0000CSRS","1991-09-26",66.92,53.96,,,
"USR0000CSRS","1991-09-27",73.04,53.06,,,
"USR0000CSRS","1991-09-28",82.94,51.98,,,
"USR0000CSRS","1991-09-29",93.92,50.00,,,
"USR0000CSRS","1991-09-30",73.94,53.96,,,
"USR0000CSRS","1991-10-01",73.94,51.98,,,
"USR0000CSRS","1991-10-02",89.06,50.00,,,
"USR0000CSRS","1991-10-03",78.98,55.04,,,
"USR0000CSRS","1991-10-04",82.04,53.96,,,
"USR0000CSRS","1991-10-05",69.08,51.98,,,
"USR0000CSRS","1991-10-06",82.04,55.94,,,
"USR0000CSRS","1991-10-07",84.92,51.98,,,
"USR0000CSRS","1991-10-08",84.92,53.06,,,
"USR0000CSRS","1991-10-09",95.00,55.04,,,
"USR0000CSRS","1991-10-10",96.98,66.02,,,
"USR0000CSRS","1991-10-11",84.02,60.08,,,
"USR0000CSRS","1991-10-12",87.08,50.00,,,
"USR0000CSRS","1991-10-13",87.98,60.98,,,
"USR0000CSRS","1991-10-14",87.08,55.04,,,
"USR0000CSRS","1991-10-15",86.00,51.98,,,
"USR0000CSRS","1991-10-16",84.02,48.92,,,
"USR0000CSRS","1991-10-17",69.08,51.08,,,
"USR0000CSRS","1991-10-18",87.08,48.92,,,
"USR0000CSRS","1991-10-19",87.98,50.00,,,
"USR0000CSRS","1991-10-20",89.96,77.00,,,
"USR0000CSRS","1991-10-21",71.06,57.02,,,
"USR0000CSRS","1991-10-22",62.06,48.02,,,
"USR0000CSRS","1991-10-23",64.94,44.06,,,
"USR0000CSRS","1991-10-24",64.04,44.06,,,
"USR0000CSRS","1991-10-25",59.00,51.08,,,
"USR0000CSRS","1991-10-26",60.08,46.94,,,
"USR0000CSRS","1991-10-27",60.98,46.04,,,
"USR0000CSRS","1991-10-28",66.02,46.04,,,
"USR0000CSRS","1991-10-29",68.00,50.00,,,
"USR0000CSRS","1991-10-30",69.08,48.92,,,
"USR0000CSRS","1991-10-31",69.98,44.96,,,
"USR0000CSRS","1991-11-01",71.06,51.98,,,
"USR0000CSRS","1991-11-02",71.06,51.08,,,
"USR0000CSRS","1991-11-03",66.02,46.94,,,
"USR0000CSRS","1991-11-04",73.94,46.04,,,
"USR0000CSRS","1991-11-05",75.92,48.92,,,
"USR0000CSRS","1991-11-06",82.94,57.02,,,
"USR0000CSRS","1991-11-07",78.98,57.02,,,
"USR0000CSRS","1991-11-08",64.04,51.98,,,
"USR0000CSRS","1991-11-09",69.08,51.98,,,
"USR0000CSRS","1991-11-10",59.00,55.04,,,
"USR0000CSRS","1991-11-11",75.02,55.04,,,
"USR0000CSRS","1991-11-12",73.94,51.08,,,
"USR0000CSRS","1991-11-13",66.92,51.08,,,
"USR0000CSRS","1991-11-14",62.06,46.94,,,
"USR0000CSRS","1991-11-15",66.92,44.96,,,
"USR0000CSRS","1991-11-16",57.02,41.00,,,
"USR0000CSRS","1991-11-17",59.00,48.02,,,
"USR0000CSRS","1991-11-18",51.98,46.04,,,
"USR0000CSRS","1991-11-19",62.06,42.98,,,
"USR0000CSRS","1991-11-20",51.08,46.94,,,
"USR0000CSRS","1991-11-21",60.98,44.96,,,
"USR0000CSRS","1991-11-22",60.08,42.08,,,
"USR0000CSRS","1991-11-23",64.04,46.04,,,
"USR0000CSRS","1991-11-24",66.02,50.00,,,
"USR0000CSRS","1991-11-25",66.02,46.04,,,
"USR0000CSRS","1991-11-26",64.94,48.92,,,
"USR0000CSRS","1991-11-27",59.00,48.92,,,
"USR0000CSRS","1991-11-28",64.04,44.06,,,
"USR0000CSRS","1991-11-29",55.94,44.96,,,
"USR0000CSRS","1991-11-30",60.98,42.98,,,
"USR0000CSRS","1991-12-02",53.06,48.92,,,
"USR0000CSRS","1991-12-03",60.08,42.08,,,
"USR0000CSRS","1991-12-04",53.96,41.00,,,
"USR0000CSRS","1991-12-05",62.06,42.08,,,
"USR0000CSRS","1991-12-06",53.96,42.08,,,
"USR0000CSRS","1991-12-07",57.02,46.94,,,
"USR0000CSRS","1991-12-08",66.02,48.92,,,
"USR0000CSRS","1991-12-09",60.98,42.08,,,
"USR0000CSRS","1991-12-10",59.00,39.02,,,
"USR0000CSRS","1991-12-11",62.96,42.98,,,
"USR0000CSRS","1991-12-12",48.92,37.94,,,
"USR0000CSRS","1991-12-13",48.02,33.98,,,
"USR0000CSRS","1991-12-14",39.92,35.06,,,
"USR0000CSRS","1991-12-15",37.94,33.98,,,
"USR0000CSRS","1991-12-16",53.06,33.08,,,
"USR0000CSRS","1991-12-17",51.98,35.96,,,
"USR0000CSRS","1991-12-18",55.04,42.08,,,
"USR0000CSRS","1991-12-19",50.00,37.94,,,
"USR0000CSRS","1991-12-20",53.96,39.02,,,
"USR0000CSRS","1991-12-21",48.92,37.04,,,
"USR0000CSRS","1991-12-22",50.00,37.94,,,
"USR0000CSRS","1991-12-23",51.08,48.02,,,
"USR0000CSRS","1991-12-24",60.08,42.98,,,
"USR0000CSRS","1991-12-25",53.06,44.06,,,
"USR0000CSRS","1991-12-26",53.96,46.04,,,
"USR0000CSRS","1991-12-27",51.98,46.94,,,
"USR0000CSRS","1991-12-28",51.98,44.96,,,
"USR0000CSRS","1991-12-29",51.08,46.04,,,
"USR0000CSRS","1991-12-30",51.98,44.06,,,
"USR0000CSRS","1991-12-31",55.94,46.94,,,
"USR0000CSRS","1992-01-01",57.02,39.92,,,
"USR0000CSRS","1992-01-02",55.04,42.98,,,
"USR0000CSRS","1992-01-03",55.94,42.98,,,
"USR0000CSRS","1992-01-04",55.04,46.94,,,
"USR0000CSRS","1992-01-05",51.08,44.96,,,
"USR0000CSRS","1992-01-06",53.06,44.96,,,
"USR0000CSRS","1992-01-07",46.04,42.08,,,
"USR0000CSRS","1992-01-08",57.02,44.06,,,
"USR0000CSRS","1992-01-09",53.06,39.92,,,
"USR0000CSRS","1992-01-10",53.96,37.94,,,
"USR0000CSRS","1992-01-11",57.02,42.98,,,
"USR0000CSRS","1992-01-12",57.92,41.00,,,
"USR0000CSRS","1992-01-13",46.04,37.04,,,
"USR0000CSRS","1992-01-14",57.02,41.00,,,
"USR0000CSRS","1992-01-15",53.06,35.96,,,
"USR0000CSRS","1992-01-16",50.00,33.98,,,
"USR0000CSRS","1992-01-17",55.94,39.92,,,
"USR0000CSRS","1992-01-18",59.00,37.04,,,
"USR0000CSRS","1992-01-19",53.96,33.98,,,
"USR0000CSRS","1992-01-20",44.96,28.94,,,
"USR0000CSRS","1992-01-21",48.92,30.02,,,
"USR0000CSRS","1992-01-22",37.94,30.02,,,
"USR0000CSRS","1992-01-23",35.06,32.00,,,
"USR0000CSRS","1992-01-24",37.94,32.00,,,
"USR0000CSRS","1992-01-25",53.96,39.02,,,
"USR0000CSRS","1992-01-26",44.06,42.98,,,
"USR0000CSRS","1992-01-27",53.06,42.98,,,
"USR0000CSRS","1992-01-28",55.94,44.06,,,
"USR0000CSRS","1992-01-29",55.04,37.94,,,
"USR0000CSRS","1992-01-30",46.94,39.92,,,
"USR0000CSRS","1992-01-31",60.08,41.00,,,
"USR0000CSRS","1992-02-01",57.92,44.96,,,
"USR0000CSRS","1992-02-02",62.96,50.00,,,
"USR0000CSRS","1992-02-03",64.94,44.06,,,
"USR0000CSRS","1992-02-04",69.08,53.06,,,
"USR0000CSRS","1992-02-05",64.04,44.06,,,
"USR0000CSRS","1992-02-06",57.92,19.94,,,
"USR0000CSRS","1992-02-07",55.94,44.96,,,
"USR0000CSRS","1992-02-08",53.06,51.98,,,
"USR0000CSRS","1992-02-09",53.06,48.92,,,
"USR0000CSRS","1992-02-10",50.00,50.00,,,
"USR0000CSRS","1992-02-11",59.00,50.00,,,
"USR0000CSRS","1992-02-12",60.08,50.00,,,
"USR0000CSRS","1992-02-13",55.04,46.94,,,
"USR0000CSRS","1992-02-14",50.00,42.98,,,
"USR0000CSRS","1992-02-15",44.06,41.00,,,
"USR0000CSRS","1992-02-16",53.06,44.06,,,
"USR0000CSRS","1992-02-17",51.98,44.06,,,
"USR0000CSRS","1992-02-18",51.08,48.02,,,
"USR0000CSRS","1992-02-19",55.94,51.08,,,
"USR0000CSRS","1992-02-20",60.98,50.00,,,
"USR0000CSRS","1992-02-21",53.96,48.92,,,
"USR0000CSRS","1992-02-22",66.02,48.92,,,
"USR0000CSRS","1992-02-23",69.98,48.92,,,
"USR0000CSRS","1992-02-24",71.96,48.92,,,
"USR0000CSRS","1992-02-25",75.92,50.00,,,
"USR0000CSRS","1992-02-26",73.94,50.00,,,
"USR0000CSRS","1992-02-27",75.02,53.06,,,
"USR0000CSRS","1992-02-28",68.00,51.98,,,
"USR0000CSRS","1992-02-29",62.96,51.98,,,
"USR0000CSRS","1992-03-01",62.96,50.00,,,
"USR0000CSRS","1992-03-02",60.98,48.92,,,
"USR0000CSRS","1992-03-03",62.06,46.94,,,
"USR0000CSRS","1992-03-04",57.92,46.94,,,
"USR0000CSRS","1992-03-05",59.00,46.94,,,
"USR0000CSRS","1992-03-06",55.04,46.94,,,
"USR0000CSRS","1992-03-07",53.96,42.08,,,
"USR0000CSRS","1992-03-08",60.98,44.96,,,
"USR0000CSRS","1992-03-09",64.04,46.94,,,
"USR0000CSRS","1992-03-10",62.96,46.94,,,
"USR0000CSRS","1992-03-11",62.06,42.98,,,
"USR0000CSRS","1992-03-12",57.92,42.08,,,
"USR0000CSRS","1992-03-13",57.02,48.02,,,
"USR0000CSRS","1992-03-14",57.92,48.92,,,
"USR0000CSRS","1992-03-15",55.94,50.00,,,
"USR0000CSRS","1992-03-16",57.02,46.04,,,
"USR0000CSRS","1992-03-17",62.06,42.98,,,
"USR0000CSRS","1992-03-18",62.96,44.96,,,
"USR0000CSRS","1992-03-19",62.06,46.04,,,
"USR0000CSRS","1992-03-20",62.06,48.92,,,
"USR0000CSRS","1992-03-21",51.08,48.92,,,
"USR0000CSRS","1992-03-22",57.02,50.00,,,
"USR0000CSRS","1992-03-23",57.92,48.02,,,
"USR0000CSRS","1992-03-24",62.96,48.02,,,
"USR0000CSRS","1992-03-25",66.02,48.92,,,
"USR0000CSRS","1992-03-26",69.08,50.00,,,
"USR0000CSRS","1992-03-27",69.08,46.94,,,
"USR0000CSRS","1992-03-28",64.04,46.04,,,
"USR0000CSRS","1992-03-29",57.02,46.94,,,
"USR0000CSRS","1992-03-30",53.96,46.04,,,
"USR0000CSRS","1992-03-31",73.04,44.96,,,
"USR0000CSRS","1992-04-01",71.96,46.94,,,
"USR0000CSRS","1992-04-02",62.96,50.00,,,
"USR0000CSRS","1992-04-03",68.00,46.94,,,
"USR0000CSRS","1992-04-04",64.04,44.06,,,
"USR0000CSRS","1992-04-05",64.94,42.08,,,
"USR0000CSRS","1992-04-06",64.04,42.08,,,
"USR0000CSRS","1992-04-07",69.98,46.04,,,
"USR0000CSRS","1992-04-08",68.00,42.98,,,
"USR0000CSRS","1992-04-09",64.94,46.04,,,
"USR0000CSRS","1992-04-10",68.00,50.00,,,
"USR0000CSRS","1992-04-11",57.92,50.00,,,
"USR0000CSRS","1992-04-12",59.00,51.08,,,
"USR0000CSRS","1992-04-13",62.96,50.00,,,
"USR0000CSRS","1992-04-14",66.92,46.94,,,
"USR0000CSRS","1992-04-15",59.00,46.94,,,
"USR0000CSRS","1992-04-16",60.08,53.96,,,
"USR0000CSRS","1992-04-17",68.00,50.00,,,
"USR0000CSRS","1992-04-18",78.98,46.94,,,
"USR0000CSRS","1992-04-19",80.06,53.06,,,
"USR0000CSRS","1992-04-20",71.96,51.08,,,
"USR0000CSRS","1992-04-21",66.92,48.02,,,
"USR0000CSRS","1992-04-22",66.92,44.96,,,
"USR0000CSRS","1992-04-23",71.96,44.96,,,
"USR0000CSRS","1992-04-24",77.00,51.98,,,
"USR0000CSRS","1992-04-25",78.08,51.08,,,
"USR0000CSRS","1992-04-26",69.08,46.94,,,
"USR0000CSRS","1992-04-27",75.02,51.98,,,
"USR0000CSRS","1992-04-28",80.96,53.96,,,
"USR0000CSRS","1992-04-29",68.00,51.08,,,
"USR0000CSRS","1992-04-30",69.98,50.00,,,
"USR0000CSRS","1992-05-01",75.92,48.02,,,
"USR0000CSRS","1992-05-02",82.94,55.94,,,
"USR0000CSRS","1992-05-03",84.02,51.08,,,
"USR0000CSRS","1992-05-04",78.08,50.00,,,
"USR0000CSRS","1992-05-05",69.08,48.02,,,
"USR0000CSRS","1992-05-06",62.06,51.08,,,
"USR0000CSRS","1992-05-07",59.00,48.92,,,
"USR0000CSRS","1992-05-08",77.00,51.98,,,
"USR0000CSRS","1992-05-09",86.00,62.96,,,
"USR0000CSRS","1992-05-10",75.02,51.08,,,
"USR0000CSRS","1992-05-11",68.00,46.94,,,
"USR0000CSRS","1992-05-12",66.02,48.92,,,
"USR0000CSRS","1992-05-13",66.02,46.94,,,
"USR0000CSRS","1992-05-14",66.02,46.94,,,
"USR0000CSRS","1992-05-15",64.04,48.92,,,
"USR0000CSRS","1992-05-16",69.98,48.92,,,
"USR0000CSRS","1992-05-17",71.96,48.92,,,
"USR0000CSRS","1992-05-18",69.98,51.98,,,
"USR0000CSRS","1992-05-19",68.00,51.08,,,
"USR0000CSRS","1992-05-20",75.02,50.00,,,
"USR0000CSRS","1992-05-21",80.96,51.98,,,
"USR0000CSRS","1992-05-22",82.04,50.00,,,
"USR0000CSRS","1992-05-23",77.00,50.00,,,
"USR0000CSRS","1992-05-24",68.00,50.00,,,
"USR0000CSRS","1992-05-25",84.92,50.00,,,
"USR0000CSRS","1992-05-26",80.96,51.98,,,
"USR0000CSRS","1992-05-27",77.00,50.00,,,
"USR0000CSRS","1992-05-28",55.04,48.92,,,
"USR0000CSRS","1992-06-01",75.92,53.06,,,
"USR0000CSRS","1992-06-02",80.06,51.08,,,
"USR0000CSRS","1992-06-03",73.94,50.00,,,
"USR0000CSRS","1992-06-04",75.92,50.00,,,
"USR0000CSRS","1992-06-05",68.00,51.08,,,
"USR0000CSRS","1992-06-06",69.08,51.98,,,
"USR0000CSRS","1992-06-07",71.96,51.08,,,
"USR0000CSRS","1992-06-08",73.94,48.02,,,
"USR0000CSRS","1992-06-09",80.06,50.00,,,
"USR0000CSRS","1992-06-10",73.04,48.92,,,
"USR0000CSRS","1992-06-11",66.02,44.96,,,
"USR0000CSRS","1992-06-12",66.92,46.94,,,
"USR0000CSRS","1992-06-13",71.06,46.94,,,
"USR0000CSRS","1992-06-14",73.04,50.00,,,
"USR0000CSRS","1992-06-15",71.96,51.98,,,
"USR0000CSRS","1992-06-16",77.00,48.92,,,
"USR0000CSRS","1992-06-17",78.08,51.08,,,
"USR0000CSRS","1992-06-18",71.06,50.00,,,
"USR0000CSRS","1992-06-19",78.98,50.00,,,
"USR0000CSRS","1992-06-20",66.92,53.96,,,
"USR0000CSRS","1992-06-21",75.92,55.94,,,
"USR0000CSRS","1992-06-22",75.02,55.04,,,
"USR0000CSRS","1992-06-23",78.08,55.04,,,
"USR0000CSRS","1992-06-24",82.04,50.00,,,
"USR0000CSRS","1992-06-25",71.96,53.96,,,
"USR0000CSRS","1992-06-26",73.94,53.96,,,
"USR0000CSRS","1992-06-27",71.96,53.06,,,
"USR0000CSRS","1992-06-28",69.98,55.94,,,
"USR0000CSRS","1992-06-29",60.08,57.02,,,
"USR0000CSRS","1992-06-30",69.98,55.94,,,
"USR0000CSRS","1992-07-01",75.02,53.96,,,
"USR0000CSRS","1992-07-02",62.96,51.98,,,
"USR0000CSRS","1992-07-03",77.00,53.06,,,
"USR0000CSRS","1992-07-04",69.98,53.96,,,
"USR0000CSRS","1992-07-05",78.08,51.98,,,
"USR0000CSRS","1992-07-06",80.96,53.96,,,
"USR0000CSRS","1992-07-07",84.92,55.04,,,
"USR0000CSRS","1992-07-08",89.96,53.06,,,
"USR0000CSRS","1992-07-09",84.92,55.04,,,
"USR0000CSRS","1992-07-10",82.04,55.94,,,
"USR0000CSRS","1992-07-11",71.96,57.02,,,
"USR0000CSRS","1992-07-12",78.98,55.04,,,
"USR0000CSRS","1992-07-13",78.98,53.96,,,
"USR0000CSRS","1992-07-14",75.92,55.04,,,
"USR0000CSRS","1992-07-15",73.04,53.96,,,
"USR0000CSRS","1992-07-16",73.94,53.96,,,
"USR0000CSRS","1992-07-17",75.02,55.04,,,
"USR0000CSRS","1992-07-18",75.92,57.92,,,
"USR0000CSRS","1992-07-19",75.02,55.94,,,
"USR0000CSRS","1992-07-20",82.94,53.96,,,
"USR0000CSRS","1992-07-21",82.04,53.96,,,
"USR0000CSRS","1992-07-22",84.92,51.08,,,
"USR0000CSRS","1992-07-23",84.02,59.00,,,
"USR0000CSRS","1992-07-24",82.04,53.06,,,
"USR0000CSRS","1992-07-25",78.98,50.00,,,
"USR0000CSRS","1992-07-26",80.96,50.00,,,
"USR0000CSRS","1992-07-27",84.92,51.08,,,
"USR0000CSRS","1992-07-28",78.98,50.00,,,
"USR0000CSRS","1992-07-29",73.04,48.92,,,
"USR0000CSRS","1992-07-30",69.98,51.08,,,
"USR0000CSRS","1992-07-31",75.92,51.98,,,
"USR0000CSRS","1992-08-01",80.96,51.98,,,
"USR0000CSRS","1992-08-02",80.96,50.00,,,
"USR0000CSRS","1992-08-03",78.98,50.00,,,
"USR0000CSRS","1992-08-04",82.94,50.00,,,
"USR0000CSRS","1992-08-05",80.96,51.08,,,
"USR0000CSRS","1992-08-06",86.00,50.00,,,
"USR0000CSRS","1992-08-07",77.00,53.96,,,
"USR0000CSRS","1992-08-08",80.96,53.96,,,
"USR0000CSRS","1992-08-09",91.04,57.02,,,
"USR0000CSRS","1992-08-10",93.92,53.96,,,
"USR0000CSRS","1992-08-11",82.04,51.98,,,
"USR0000CSRS","1992-08-12",78.08,57.02,,,
"USR0000CSRS","1992-08-13",80.06,55.94,,,
"USR0000CSRS","1992-08-14",78.98,53.96,,,
"USR0000CSRS","1992-08-15",87.08,55.04,,,
"USR0000CSRS","1992-08-16",89.96,51.98,,,
"USR0000CSRS","1992-08-17",80.96,51.08,,,
"USR0000CSRS","1992-08-18",89.06,50.00,,,
"USR0000CSRS","1992-08-19",87.08,48.92,,,
"USR0000CSRS","1992-08-20",80.06,48.92,,,
"USR0000CSRS","1992-08-21",84.02,48.92,,,
"USR0000CSRS","1992-08-22",82.94,53.06,,,
"USR0000CSRS","1992-08-23",87.08,59.00,,,
"USR0000CSRS","1992-08-24",87.98,51.98,,,
"USR0000CSRS","1992-08-25",73.94,51.08,,,
"USR0000CSRS","1992-08-26",84.92,48.92,,,
"USR0000CSRS","1992-08-27",78.98,48.92,,,
"USR0000CSRS","1992-08-28",69.08,50.00,,,
"USR0000CSRS","1992-08-29",73.94,55.94,,,
"USR0000CSRS","1992-08-30",62.96,55.94,,,
"USR0000CSRS","1992-08-31",77.00,53.96,,,
"USR0000CSRS","1992-09-01",75.92,53.06,,,
"USR0000CSRS","1992-09-02",69.98,51.08,,,
"USR0000CSRS","1992-09-03",68.00,50.00,,,
"USR0000CSRS","1992-09-04",73.94,51.08,,,
"USR0000CSRS","1992-09-08",55.94,53.96,,,
"USR0000CSRS","1992-09-09",57.02,53.96,,,
"USR0000CSRS","1992-09-11",73.04,53.06,,,
"USR0000CSRS","1992-09-12",80.96,51.98,,,
"USR0000CSRS","1992-09-13",84.92,55.94,,,
"USR0000CSRS","1992-09-14",68.00,48.92,,,
"USR0000CSRS","1992-09-15",75.92,48.02,,,
"USR0000CSRS","1992-09-16",73.94,46.94,,,
"USR0000CSRS","1992-09-17",73.94,51.08,,,
"USR0000CSRS","1992-09-18",77.00,50.00,,,
"USR0000CSRS","1992-09-19",75.02,51.08,,,
"USR0000CSRS","1992-09-20",82.04,48.92,,,
"USR0000CSRS","1992-09-21",82.04,50.00,,,